Voltar ao catálogo

DELTA 1 DEB

AtivoSSO
NORAD 10658·DEBRIS·🇺🇸 United States

Lançado Jul 29, 1976 de Vandenberg Space Force Base

Loading…

Próximas Passagens (próximas 24 horas)

TLE

AtualizadoSource: Space-Track

Época: Sep 14, 2026, 05:52 UTC

1 10658U 76077U   26257.24492029 -.00000048  00000-0 -14266-4 0  9998
2 10658 102.4985 245.0926 0056486 211.5568 220.1873 12.29960428250874

Acompanhe DELTA 1 DEB em tempo real com AllMySat

Download on the App Store